Location: Peebles
(55.6412°N, 3.1714°W)
Time: 10:33:45
(UTC+01:00)

Cosmos 2327 Rocket - Pass Details

Date: 26 September 2021
Orbit: 944 x 1007 km, 83.0° (Epoch: 20 October)

Event Time Altitude Azimuth Distance (km) Brightness Sun altitude
Rises 20:18:27 0° 184° (S) 3,666 7.4 -11.7°
Reaches altitude 10° 20:20:56 10° 183° (S) 2,732 6.7 -12.0°
Maximum altitude 20:27:12 79° 99° (E) 1,017 4.5 -12.9°
Drops below altitude 10° 20:33:37 10° 13° (NNE) 2,787 7.0 -13.8°
Sets 20:36:10 0° 13° (NNE) 3,746 7.6 -14.1°
